Flag for Germany Weather past 2 weeks in Alsfeld, Hesse, Germany

Now
76 °F

Partly sunny.


Feels Like: 78 °F
Forecast: 62 / 79 °F
Wind: 3 mph from Northeast

Location: Fritzlar

Current Time: Jul 22, 2014 at 1:39:09 PM

Latest Report: Jul 22, 2014 at 1:00 PM


Visibility: 14 mi

Pressure: 30.00 "Hg

Humidity: 63%

Dew point: 63 °F

Location of AlsfeldLocation

Historic Weather in Alsfeld — Graph

°F

Alsfeld temperature yesterday

Maximum temperature yesterday: 74 °F (at 6:00 PM)
Minimum temperature yesterday: 65 °F (at 7:00 AM)
Average temperature yesterday: 69 °F

Past Weeks' High & Low Weather Summary

 TemperatureHumidityPressure
High88 °F (Jul 19, 5:00 PM)98% (Jul 11, 6:00 AM)30.20 "Hg (Jul 11, 6:00 AM)
Low55 °F (Jul 15, 6:00 AM)34% (Jul 18, 5:00 PM)29.65 "Hg (Jul 9, 4:00 PM)
Average67 °F75%29.93 "Hg
* Reported Jul 7 12:00 Noon — Jul 22 12:00 Noon, Alsfeld, Weather by CustomWeather, © 2014

Note: Actual official high and low records may vary slightly from our data, if they occured in-between our weather recording intervals... More about our weather records

Advertising

Alsfeld weather history for previous 24 hours

 ConditionsComfort  
Time TempWeatherWind HumidityBarometerVisibility
12:00 PM
Jul 22
75 °FPartly sunny.5 mph68%30.00 "Hg12 mi
11:00 AM74 °FOvercast.2 mph68%29.99 "Hg12 mi
10:00 AM70 °FOvercast.3 mph75%29.99 "Hg12 mi
9:00 AM66 °FOvercast.2 mph85%29.99 "Hg11 mi
8:00 AM64 °FOvercast.3 mph88%29.98 "Hg11 mi
7:00 AM64 °FOvercast.2 mph90%29.97 "Hg11 mi
6:00 AM66 °FPartly sunny.3 mph89%29.96 "Hg7 mi
5:00 AM66 °FFog.2 mph93%29.94 "Hg4 mi
4:00 AM67 °FFog.3 mph92%29.93 "Hg3 mi
3:00 AM68 °FThunderstorms. Overcast.N/A91%29.93 "Hg4 mi
2:00 AM68 °FThundershowers. Overcast.2 mph94%29.93 "Hg2 mi
1:00 AM70 °FFog.3 mph88%29.93 "Hg4 mi
12:00 AM70 °FFog.2 mph87%29.91 "Hg4 mi
11:00 PM
Jul 21
69 °FFog.3 mph88%29.90 "Hg3 mi
10:00 PM71 °FFog.3 mph86%29.90 "Hg4 mi
9:00 PM72 °FOvercast.3 mph82%29.89 "Hg6 mi
8:00 PM73 °FOvercast.3 mph80%29.88 "Hg6 mi
7:00 PM73 °FOvercast.3 mph78%29.88 "Hg11 mi
6:00 PM74 °FOvercast.5 mph74%29.86 "Hg12 mi
5:00 PM74 °FOvercast.3 mph75%29.85 "Hg11 mi
4:00 PM72 °FOvercast.3 mph80%29.87 "Hg11 mi
3:00 PM71 °FOvercast.3 mph81%29.86 "Hg11 mi
2:00 PM71 °FOvercast.3 mph83%29.86 "Hg11 mi
1:00 PM70 °FOvercast.2 mph84%29.86 "Hg10 mi
Weather by CustomWeather, © 2014

See weather overviewHow to use our weather pages